This is the latest recevied weather packets stored in our database for station/object N0QWM. If no packets are shown the sender has not sent any weather packets the latest 10 day(s).
| Time | Temp. | Humidity | Pressure | Rain* | Wind** | Luminosity | Snow |
|---|---|---|---|---|---|---|---|
| 1788128560 | 32.78° C | 61% | 1022.5 hPa | 0 mm | - | 42 W/m² | - |
| 1788128255 | 33.33° C | 59% | 1022.2 hPa | 0 mm | - | 57 W/m² | - |
| 1788127952 | 32.78° C | 61% | 1022.3 hPa | 0 mm | - | 70 W/m² | - |
| 1788127647 | 32.78° C | 60% | 1022.2 hPa | 0 mm | - | 75 W/m² | - |
| 1788127346 | 33.89° C | 59% | 1022.4 hPa | 0 mm | - | 61 W/m² | - |
| 1788127044 | 33.89° C | 57% | 1022.4 hPa | 0 mm | - | 69 W/m² | - |
| 1788126739 | 33.89° C | 58% | 1022.5 hPa | 0 mm | - | 271 W/m² | - |
| 1788126434 | 33.33° C | 59% | 1022.5 hPa | 0 mm | - | 59 W/m² | - |
| 1788126129 | 33.33° C | 59% | 1022.3 hPa | 0 mm | - | 59 W/m² | - |
| 1788125828 | 33.33° C | 59% | 1022.3 hPa | 0 mm | - | 57 W/m² | - |
| 1788125524 | 33.89° C | 58% | 1022.3 hPa | 0 mm | - | 79 W/m² | - |
| 1788125219 | 32.78° C | 59% | 1022.7 hPa | 0 mm | - | 331 W/m² | - |
| 1788124914 | 32.78° C | 59% | 1022.2 hPa | 0 mm | - | 62 W/m² | - |
| 1788124609 | 32.78° C | 59% | 1022.5 hPa | 0 mm | - | 60 W/m² | - |
| 1788124308 | 33.33° C | 58% | 1022.5 hPa | 0 mm | - | 71 W/m² | - |
| 1788124004 | 34.44° C | 56% | 1022.7 hPa | 0 mm | - | 93 W/m² | - |
| 1788123703 | 34.44° C | 58% | 1022.5 hPa | 0 mm | - | 465 W/m² | - |
| 1788123401 | 33.33° C | 58% | 1022.6 hPa | 0 mm | - | 405 W/m² | - |
| 1788123096 | 33.89° C | 58% | 1022.6 hPa | 0 mm | - | 90 W/m² | - |
| 1788122796 | 33.89° C | 58% | 1022.9 hPa | 0 mm | - | 396 W/m² | - |
| 1788122494 | 33.89° C | 58% | 1022.8 hPa | 0 mm | - | 80 W/m² | - |
| 1788122191 | 34.44° C | 57% | 1022.8 hPa | 0 mm | - | 232 W/m² | - |
| 1788121890 | 34.44° C | 57% | 1022.6 hPa | 0 mm | - | 475 W/m² | - |
| 1788121585 | 34.44° C | 55% | 1022.9 hPa | 0 mm | - | 526 W/m² | - |
| 1788121281 | 33.89° C | 57% | 1023.1 hPa | 0 mm | - | 534 W/m² | - |
* Rain latest hour (hover to see other rain measurements)
** Current wind speed in m/s (hover to see current wind gust speed)